Weather History for Cecil Field, FL

Change the Weather History Date:

Thursday, August 15, 2013

  Actual Average (KJAX) Record (KJAX)
Temperature  
Mean Temperature 82 °F 82 °F  
Max Temperature 93 °F 91 °F 99 °F (1956)
Min Temperature 71 °F 73 °F 67 °F (1983)
Degree Days  
Heating Degree Days 0 0  
Month to date heating degree days 0  
Since 1 June heating degree days 0  
Since 1 July heating degree days 0  
Cooling Degree Days 17 17  
Month to date cooling degree days 256  
Year to date cooling degree days 1725  
Since 1 June cooling degree days 1241  
Growing Degree Days 32 (Base 50)    
Moisture  
Dew Point 74 °F    
Average Humidity 92    
Maximum Humidity 100    
Minimum Humidity 52    
Precipitation  
Precipitation 0.00 in 0.21 in 3.06 in (1952)
Month to date precipitation 3.04  
Year to date precipitation 31.60  
Snow  
Snow 0.00 in 0.00 in 0.00 in (2002)
Month to date snowfall 0.0  
Since 1 June snowfall 0.0  
Since 1 July snowfall 0.0  
Snow Depth -    
Sea Level Pressure  
Sea Level Pressure 29.99 in    
Wind  
Wind Speed 2 mph (South)    
Max Wind Speed 17 mph    
Max Gust Speed -    
Visibility 8 miles    
Events Thunderstorm    
T = Trace of Precipitation, MM = Missing Value Source: NWS Daily Summary

Daily Weather History Graph

Daily Weather History Graph

Search for Another Location

Airport:

Trip Planner

Search our weather history database for the weather conditions in past years. The results will help you decide how hot, cold, wet, or windy it might be!

Date:

Astronomy

Aug. 15, 2013 Rise Set
Actual Time 6:54 AM EDT 8:08 PM EDT
Civil Twilight 6:29 AM EDT 8:33 PM EDT
Nautical Twilight 5:59 AM EDT 9:03 PM EDT
Astronomical Twilight 5:28 AM EDT 9:34 PM EDT
Moon 3:16 PM EDT (8/15) 1:09 AM EDT (8/15)
Length of Visible Light 14h 04m
Length of Day
13h 13m
Waxing Gibbous, 64% of the Moon is Illuminated
Aug 15
Waxing Gibbous
Aug 20
Full
Aug 28
Last Quarter
Sep 5
New
Sep 12
First Quarter

Hourly Weather History & Observations

Time (EDT) Temp. Heat Index Dew Point Humidity Pressure Visibility Wind Dir Wind Speed Gust Speed Precip Events Conditions
12:15 AM 73.4 °F - 73.4 °F 100% 30.01 in 10.0 mi Calm Calm - N/A   Partly Cloudy
12:35 AM 73.4 °F - 73.4 °F 100% 30.00 in 10.0 mi Calm Calm - N/A   Clear
12:55 AM 73.4 °F - 73.4 °F 100% 30.00 in 10.0 mi Calm Calm - N/A   Clear
1:15 AM 73.4 °F - 73.4 °F 100% 29.99 in 10.0 mi Calm Calm - N/A   Clear
1:35 AM 73.4 °F - 73.4 °F 100% 29.98 in 8.0 mi Calm Calm - N/A   Clear
1:55 AM 73.4 °F - 73.4 °F 100% 29.98 in 9.0 mi Calm Calm - N/A   Clear
2:15 AM 73.4 °F - 73.4 °F 100% 29.98 in 7.0 mi SSE 3.5 mph - N/A   Clear
2:35 AM 73.4 °F - 73.4 °F 100% 29.97 in 9.0 mi SSE 3.5 mph - N/A   Clear
2:55 AM 73.4 °F - 73.4 °F 100% 29.97 in 9.0 mi SSE 3.5 mph - N/A   Clear
3:15 AM 73.4 °F - 73.4 °F 100% 29.97 in 9.0 mi South 3.5 mph - N/A   Clear
3:35 AM 73.4 °F - 73.4 °F 100% 29.96 in 10.0 mi South 3.5 mph - N/A   Clear
3:55 AM 73.4 °F - 73.4 °F 100% 29.95 in 9.0 mi SSE 3.5 mph - N/A   Clear
4:15 AM 73.4 °F - 73.4 °F 100% 29.95 in 10.0 mi Calm Calm - N/A   Clear
4:35 AM 73.4 °F - 73.4 °F 100% 29.96 in 8.0 mi South 3.5 mph - N/A   Clear
4:55 AM 73.4 °F - 73.4 °F 100% 29.96 in 9.0 mi Calm Calm - N/A   Clear
5:15 AM 73.4 °F - 73.4 °F 100% 29.97 in 8.0 mi Calm Calm - N/A   Clear
5:35 AM 73.4 °F - 73.4 °F 100% 29.97 in 6.0 mi Calm Calm - N/A   Clear
5:55 AM 73.4 °F - 73.4 °F 100% 29.97 in 4.0 mi Calm Calm - N/A   Clear
6:15 AM 73.4 °F - 73.4 °F 100% 29.97 in 5.0 mi Calm Calm - N/A   Clear
6:35 AM 73.4 °F - 73.4 °F 100% 29.98 in 5.0 mi Calm Calm - N/A   Clear
6:50 AM 71.6 °F - 71.6 °F 100% 29.98 in 7.0 mi Calm Calm - N/A   Clear
7:50 AM 73.4 °F - 73.4 °F 100% 30.00 in 10.0 mi SSE 4.6 mph - N/A   Clear
8:50 AM 77.0 °F - 75.2 °F 94% 30.01 in 10.0 mi South 4.6 mph - N/A   Clear
9:50 AM 84.2 °F 92.3 °F 75.2 °F 74% 30.01 in 10.0 mi South 4.6 mph - N/A   Clear
10:50 AM 84.2 °F 94.1 °F 77.0 °F 79% 30.02 in 10.0 mi WSW 3.5 mph - N/A   Scattered Clouds
11:50 AM 86.0 °F 95.1 °F 75.2 °F 70% 30.01 in 10.0 mi SW 4.6 mph - N/A   Scattered Clouds
12:50 PM 89.6 °F 99.8 °F 75.2 °F 62% 29.99 in 10.0 mi SW 5.8 mph - N/A   Mostly Cloudy
1:50 PM 91.4 °F 100.1 °F 73.4 °F 55% 29.98 in 10.0 mi South 8.1 mph - N/A   Scattered Clouds
2:50 PM 93.2 °F 105.0 °F 75.2 °F 56% 29.95 in 10.0 mi South 11.5 mph - N/A   Scattered Clouds
3:50 PM 93.2 °F 102.4 °F 73.4 °F 52% 29.92 in 10.0 mi SSW 9.2 mph - N/A   Scattered Clouds
4:50 PM 87.8 °F 95.6 °F 73.4 °F 62% 29.94 in 10.0 mi West 17.3 mph - N/A   Mostly Cloudy
5:50 PM 80.6 °F 84.6 °F 71.6 °F 74% 29.94 in 7.0 mi WNW 6.9 mph - N/A   Mostly Cloudy
6:50 PM 80.6 °F 84.6 °F 71.6 °F 74% 29.99 in 10.0 mi North 8.1 mph - N/A   Mostly Cloudy
7:50 PM 75.2 °F - 73.4 °F 94% 30.01 in 10.0 mi ENE 5.8 mph - N/A   Mostly Cloudy
8:15 PM 75.2 °F - 75.2 °F 100% 30.02 in 8.0 mi Calm Calm - N/A Thunderstorm Mostly Cloudy
8:35 PM 75.2 °F - 75.2 °F 100% 30.02 in 8.0 mi ENE 4.6 mph - N/A   Scattered Clouds
8:55 PM 73.4 °F - 73.4 °F 100% 30.03 in 8.0 mi Calm Calm - N/A   Mostly Cloudy
9:15 PM 73.4 °F - 73.4 °F 100% 30.04 in 6.0 mi Calm Calm - N/A   Mostly Cloudy
9:35 PM 73.4 °F - 73.4 °F 100% 30.05 in 9.0 mi Calm Calm - N/A   Mostly Cloudy
9:55 PM 73.4 °F - 73.4 °F 100% 30.05 in 10.0 mi Calm Calm - N/A   Scattered Clouds
10:15 PM 73.4 °F - 73.4 °F 100% 30.05 in 10.0 mi Calm Calm - N/A   Partly Cloudy
10:35 PM 73.4 °F - 73.4 °F 100% 30.05 in 8.0 mi Calm Calm - N/A   Clear
10:55 PM 73.4 °F - 73.4 °F 100% 30.04 in 9.0 mi Calm Calm - N/A   Scattered Clouds
11:15 PM 73.4 °F - 73.4 °F 100% 30.04 in 5.0 mi Calm Calm - N/A   Partly Cloudy
11:35 PM 73.4 °F - 73.4 °F 100% 30.03 in 8.0 mi Calm Calm - N/A   Clear
11:55 PM 71.6 °F - 71.6 °F 100% 30.03 in 5.0 mi Calm Calm - N/A   Partly Cloudy